Location: Flotzheim
(48.8375°N, 10.8136°E)
Time: 04:24:14
(UTC+00:00)

H-2A R/B - Pass Details

Date: 23 January 2021
Orbit: 734 x 836 km, 98.2° (Epoch: 26 February)

Event Time Altitude Azimuth Distance (km) Brightness Sun altitude
Rises 18:16:35 0° 175° (S) 3,178 5.2 -22.2°
Reaches altitude 10° 18:18:53 10° 179° (S) 2,270 4.5 -22.5°
Maximum altitude 18:23:48 59° 259° (W) 883 2.5 -23.3°
Drops below altitude 10° 18:28:55 10° 339° (NNW) 2,348 4.7 -24.2°
Sets 18:31:19 0° 344° (NNW) 3,298 5.5 -24.6°
